Weather observations for the past three days for
Des Moines International Airport
Imperial (Metric)
Date Time (cdt) Wind (mph) Vis. (mi.) Weather Sky Cond. Temperature (ºF) Relative Humidity Wind Chill (°F) Heat Index (°F) Pressure Precipitation (in)
Air Dwpt 6 hour altimeter (in) sea level (mb) 1 hr 3 hr 6 hr
Max. Min.
22 03:54 S 15 10.00 Overcast FEW075 OVC110 81 69.1 67% 84 29.9 1011.3
22 02:54 S 13 10.00 Mostly Cloudy BKN120 81 70 69% 84 29.91 1011.9
22 01:54 S 12 10.00 Mostly Cloudy BKN170 81 71.1 72% 85 29.94 1012.7
22 00:54 S 13 10.00 Overcast SCT150 OVC300 81 72 87.1 81 74% 85 29.95 1013.1
21 23:54 S 10 10.00 Overcast BKN110 BKN200 OVC300 81 72 74% 85 29.98 1014.0
21 22:54 S 12 10.00 Mostly Cloudy SCT110 BKN200 82 72 72% 87 29.97 1013.9
21 21:54 S 9 10.00 Mostly Cloudy FEW110 BKN200 82 72 72% 87 29.96 1013.5
21 20:54 S 9 10.00 Mostly Cloudy BKN110 BKN200 84 73.9 72% 91 29.97 1014.1
21 19:54 S 10 10.00 Partly Cloudy FEW035 FEW110 SCT200 84.9 73 68% 92 29.98 1014.4
21 18:54 S 13 G 23 10.00 Partly Cloudy FEW045 FEW110 SCT200 87.1 71.1 91.9 87.1 59% 93 29.99 1014.7
21 17:54 S 14 10.00 Mostly Cloudy FEW045 SCT100 BKN200 89.1 71.1 55% 95 30.02 1015.5
21 16:54 SW 10 10.00 Mostly Cloudy FEW045 BKN100 BKN200 90 72 56% 97 30.03 1016.0
21 15:54 SW 16 G 25 10.00 Partly Cloudy FEW047 SCT130 SCT200 90 69.1 50% 95 30.05 1016.8
21 14:54 SW 16 G 23 10.00 Partly Cloudy FEW047 FEW070 FEW100 SCT200 91 69.1 49% 96 30.07 1017.4
21 13:54 S 12 G 26 10.00 A Few Clouds FEW045 FEW100 FEW200 90 69.1 50% 95 30.09 1018.1
21 12:54 S 16 10.00 A Few Clouds FEW045TCU FEW200 89.1 69.1 90 75 52% 94 30.11 1018.7
21 11:54 SW 13 10.00 A Few Clouds FEW035TCU FEW200 88 70 55% 93 30.12 1019.2
21 10:54 S 12 10.00 A Few Clouds FEW035 FEW100 FEW200 86 71.1 61% 92 30.14 1019.6
21 09:54 SW 10 10.00 A Few Clouds FEW100 FEW200 84 70 63% 88 30.15 1020.1
21 08:54 SW 10 10.00 A Few Clouds FEW100 FEW200 81 70 69% 84 30.16 1020.5
21 07:54 S 13 10.00 A Few Clouds FEW220 78.1 70 76% 80 30.17 1020.7
21 06:54 S 8 10.00 A Few Clouds FEW100 FEW250 75 70 77 73.9 84% 75 30.17 1020.7
21 05:54 S 9 10.00 Mostly Cloudy BKN100 75 71.1 88% 75 30.17 1020.9
21 04:54 SE 9 10.00 Overcast SCT060 OVC095 75 71.1 88% 75 30.18 1021.0
21 03:54 SE 8 10.00 Mostly Cloudy FEW065 BKN100 73.9 71.1 91% 30.17 1021.0
21 02:54 SE 8 10.00 Mostly Cloudy FEW046 BKN095 75 72 90% 74 30.18 1021.1
21 01:54 SE 7 10.00 Mostly Cloudy FEW048 FEW060 BKN090 75.9 72 88% 76 30.19 1021.6
21 00:54 E 8 10.00 Mostly Cloudy BKN085 77 71.1 82.9 75.9 82% 79 30.2 1022.0
20 23:54 E 9 10.00 Mostly Cloudy BKN075 BKN150 75.9 70 82% 77 30.21 1022.1
20 22:54 NE 7 10.00 Partly Cloudy FEW045 SCT075 SCT250 75.9 70 82% 77 30.21 1022.3
20 21:54 SE 8 10.00 Thunderstorm FEW040CB FEW090 SCT250 78.1 70 76% 80 30.22 1022.6
20 20:54 E 7 10.00 A Few Clouds FEW040 FEW090 FEW250 79 69.1 72% 82 30.2 1021.9
20 19:54 NE 6 10.00 A Few Clouds FEW040 FEW090 FEW250 82 69.1 65% 85 30.19 1021.8
20 18:54 Calm 10.00 A Few Clouds FEW035 FEW090 FEW250 82.9 66.9 84 75 59% 86 30.19 1021.7
20 17:54 SW 3 10.00 Mostly Cloudy FEW025 BKN030 BKN250 81 68 65% 84 30.21 1022.2
20 16:54 E 3 10.00 Mostly Cloudy FEW025 BKN030 BKN250 81 69.1 67% 84 30.22 1022.8
20 15:54 Vrbl 5 10.00 Mostly Cloudy BKN025 BKN250 80.1 70 71% 83 30.25 1023.7
20 14:54 W 3 10.00 Overcast OVC019 79 69.1 72% 82 30.26 1024.1
20 13:54 SE 7 10.00 Overcast OVC015 75.9 69.1 79% 77 30.27 1024.5
20 12:54 Vrbl 3 10.00 Overcast OVC013 75 69.1 75 66.9 82% 75 30.28 1024.9
20 11:54 Vrbl 3 10.00 Overcast OVC009 73.9 68 82% 30.28 1025.0
20 10:54 E 5 10.00 Overcast OVC006 71.1 66.9 87% 30.29 1025.3
20 09:54 NE 7 6.00 Fog/Mist BKN005 OVC018 70 66.9 90% 30.29 1025.2
20 08:54 NE 6 6.00 Fog/Mist OVC004 69.1 66 90% 30.29 1025.4
20 07:54 N 5 4.00 Fog/Mist OVC004 68 64.9 90% 30.29 1025.1
20 06:54 N 3 4.00 Fog/Mist OVC004 66.9 64.9 68 66 93% 30.29 1025.2 0.37
20 05:54 N 3 7.00 Overcast OVC004 66.9 64.9 93% 30.27 1024.6
20 04:54 NE 6 9.00 Light Drizzle OVC004 66.9 64.9 93% 30.26 1024.4 0.03
20 03:54 NE 7 3.00 Light Rain Fog/Mist SCT003 OVC023 66 64 93% 30.27 1024.5 0.2 0.34
20 02:54 N 3 3.00 Rain Fog/Mist FEW007 OVC025 66 64 93% 30.28 1024.8 0.1
20 01:54 NE 5 8.00 Light Rain FEW034 BKN055 OVC075 66 64 93% 30.27 1024.6 0.04
20 00:54 E 7 10.00 Overcast BKN065 OVC085 68 63 69.1 66.9 84% 30.27 1024.5
19 23:54 E 5 10.00 Overcast BKN040 BKN075 OVC250 68 64 87% 30.28 1024.8
19 22:54 NE 6 10.00 Overcast FEW015 BKN040 OVC090 68 63 84% 30.28 1024.8
19 21:54 NE 5 10.00 Overcast SCT012 BKN040 OVC090 68 63 84% 30.28 1024.7
19 20:54 E 6 10.00 Overcast FEW012 BKN055 BKN080 OVC250 68 63 84% 30.25 1024.0
19 19:54 NE 6 10.00 Overcast FEW015 BKN065 OVC220 69.1 63 81% 30.25 1023.9
19 18:54 NE 7 10.00 Mostly Cloudy BKN013 BKN080 BKN220 69.1 63 70 66.9 81% 30.25 1023.9 0.01
19 17:54 N 9 10.00 Overcast OVC014 69.1 63 81% 30.25 1023.7
19 16:54 N 7 10.00 Overcast SCT014 BKN065 OVC110 68 63 84% 30.25 1023.9
19 15:54 NE 12 10.00 Light Rain BKN019 BKN075 OVC110 68 62.1 81% 30.24 1023.5 0.01 0.01
19 14:54 N 7 10.00 Overcast BKN012 OVC025 69.1 62.1 78% 30.26 1024.1
19 13:54 N 8 10.00 Overcast BKN012 BKN020 OVC100 69.1 64 84% 30.24 1023.6
19 12:54 N 8 10.00 Light Rain BKN015 OVC022 69.1 64.9 72 68 87% 30.24 1023.4 0.02
19 11:54 N 8 10.00 Light Rain OVC009 68 64 87% 30.23 1023.1 0.02
19 10:54 N 7 10.00 Light Rain OVC009 71.1 66.9 87% 30.22 1022.7
19 09:54 N 7 10.00 Overcast BKN008 BKN040 OVC110 71.1 66.9 87% 30.2 1022.1
19 08:54 N 8 4.00 Light Drizzle Fog/Mist OVC004 70 66.9 90% 30.17 1020.7
19 07:54 W 9 10.00 Light Drizzle OVC005 70 68 93% 30.15 1020.2
19 06:54 Calm 10.00 Overcast FEW007 BKN010 OVC110 70 66.9 70 69.1 90% 30.11 1018.7 0.19
19 05:54 W 6 10.00 Light Rain FEW007 FEW015 SCT120 OVC140 69.1 66.9 93% 30.07 1017.5 0.02
19 04:54 S 9 6.00 Light Rain Fog/Mist FEW004 BKN013 OVC095 69.1 66.9 93% 30.08 1017.8 0.07
Date Time (cdt) Wind (mph) Vis. (mi.) Weather Sky Cond. Air Dwpt Max. Min. Relative Humidity Wind Chill (°F) Heat Index (°F) altimeter (in) sea level (mb) 1 hr 3 hr 6 hr
6 hour
Temperature (ºF) Pressure Precipitation (in)